Weather History for Atka, AK

Change the Weather History Date:

Tuesday, October 2, 2012

  Actual Average (PADK) Record (PADK)
Temperature  
Mean Temperature 46 °F -  
Max Temperature 51 °F 50 °F 61 °F (1960)
Min Temperature 41 °F 40 °F 29 °F (1993)
Degree Days  
Heating Degree Days 19    
Moisture  
Dew Point 39 °F    
Average Humidity 78    
Maximum Humidity 87    
Minimum Humidity 66    
Precipitation  
Precipitation 0.00 in - - ()
Sea Level Pressure  
Sea Level Pressure 29.42 in    
Wind  
Wind Speed 12 mph (East)    
Max Wind Speed 28 mph    
Max Gust Speed 38 mph    
Visibility 9 miles    
Events      
Averages and records for this station are not official NWS values.
T = Trace of Precipitation, MM = Missing Value Source: NWS Daily Summary

Daily Weather History Graph

Daily Weather History Graph

Search for Another Location

Airport:

Trip Planner

Search our weather history database for the weather conditions in past years. The results will help you decide how hot, cold, wet, or windy it might be!

Date:

Astronomy

Oct. 02, 2012 Rise Set
Actual Time 8:40 AM HADT 8:09 PM HADT
Civil Twilight 8:07 AM HADT 8:43 PM HADT
Nautical Twilight 7:27 AM HADT 9:22 PM HADT
Astronomical Twilight 6:47 AM HADT 10:03 PM HADT
Moon 9:03 PM HADT (10/2) 11:48 AM HADT (10/2)
Length of Visible Light 12h 36m
Length of Day
11h 29m
Waning Gibbous, 93% of the Moon is Illuminated
Oct 2
Waning Gibbous
Oct 7
Last Quarter
Oct 15
New
Oct 21
First Quarter
Oct 29
Full

Hourly Weather History & Observations

Time (HADT) Temp. Windchill Dew Point Humidity Pressure Visibility Wind Dir Wind Speed Gust Speed Precip Events Conditions
12:16 AM 44.6 °F 39.7 °F 35.6 °F 71% 29.65 in 10.0 mi NNW 9.2 mph - N/A   Overcast
12:36 AM 42.8 °F 36.6 °F 35.6 °F 76% 29.65 in 10.0 mi NW 11.5 mph - N/A   Overcast
12:56 AM 42.8 °F 38.0 °F 35.6 °F 76% 29.65 in 10.0 mi NW 8.1 mph - N/A   Mostly Cloudy
1:16 AM 42.8 °F 38.6 °F 35.6 °F 76% 29.65 in 10.0 mi NW 6.9 mph - N/A   Mostly Cloudy
1:36 AM 42.8 °F 37.5 °F 37.4 °F 81% 29.64 in 10.0 mi NW 9.2 mph - N/A   Scattered Clouds
1:56 AM 42.8 °F 41.1 °F 35.6 °F 76% 29.65 in 10.0 mi NNW 3.5 mph - N/A   Scattered Clouds
2:16 AM 42.8 °F 38.6 °F 37.4 °F 81% 29.66 in 10.0 mi West 6.9 mph - N/A   Mostly Cloudy
2:36 AM 41.0 °F 39.0 °F 37.4 °F 87% 29.64 in 10.0 mi WNW 3.5 mph - N/A   Mostly Cloudy
2:56 AM 42.8 °F - 35.6 °F 76% 29.65 in 10.0 mi Calm Calm - N/A   Mostly Cloudy
3:16 AM 42.8 °F 41.1 °F 35.6 °F 76% 29.62 in 10.0 mi NE 3.5 mph - N/A   Scattered Clouds
3:36 AM 41.0 °F 39.0 °F 35.6 °F 81% 29.61 in 10.0 mi SW 3.5 mph - N/A   Clear
3:56 AM 42.8 °F 37.5 °F 37.4 °F 81% 29.62 in 10.0 mi South 9.2 mph - N/A   Partly Cloudy
4:16 AM 42.8 °F 38.6 °F 35.6 °F 76% 29.63 in 10.0 mi South 6.9 mph - N/A   Mostly Cloudy
4:36 AM 42.8 °F 37.5 °F 37.4 °F 81% 29.62 in 10.0 mi SE 9.2 mph - N/A   Overcast
4:56 AM 44.6 °F 39.7 °F 37.4 °F 76% 29.62 in 10.0 mi SSE 9.2 mph - N/A   Overcast
5:16 AM 44.6 °F 39.7 °F 37.4 °F 76% 29.62 in 10.0 mi SE 9.2 mph - N/A   Overcast
5:36 AM 44.6 °F 39.7 °F 37.4 °F 76% 29.61 in 10.0 mi SE 9.2 mph - N/A   Overcast
5:56 AM 44.6 °F 39.2 °F 37.4 °F 76% 29.62 in 10.0 mi SE 10.4 mph - N/A   Overcast
6:16 AM 42.8 °F 36.6 °F 37.4 °F 81% 29.61 in 10.0 mi SE 11.5 mph - N/A   Overcast
6:36 AM 42.8 °F 36.6 °F 37.4 °F 81% 29.60 in 9.0 mi SE 11.5 mph - N/A   Overcast
6:56 AM 44.6 °F 37.8 °F 39.2 °F 81% 29.59 in 8.0 mi SE 15.0 mph - N/A   Overcast
7:16 AM 44.6 °F 38.4 °F 37.4 °F 76% 29.60 in 10.0 mi SE 12.7 mph - N/A   Overcast
7:36 AM 44.6 °F 38.1 °F 37.4 °F 76% 29.59 in 10.0 mi ESE 13.8 mph - N/A   Overcast
7:56 AM 44.6 °F 38.1 °F 37.4 °F 76% 29.59 in 10.0 mi ESE 13.8 mph - N/A   Overcast
8:16 AM 44.6 °F 38.1 °F 37.4 °F 76% 29.59 in 10.0 mi ESE 13.8 mph - N/A   Overcast
8:36 AM 44.6 °F 38.4 °F 37.4 °F 76% 29.57 in 10.0 mi ESE 12.7 mph - N/A   Overcast
8:56 AM 44.6 °F 38.1 °F 37.4 °F 76% 29.56 in 10.0 mi ESE 13.8 mph - N/A   Overcast
9:16 AM 44.6 °F 38.8 °F 39.2 °F 81% 29.54 in 10.0 mi East 11.5 mph - N/A   Overcast
9:36 AM 44.6 °F 38.8 °F 37.4 °F 76% 29.52 in 10.0 mi East 11.5 mph - N/A   Overcast
9:56 AM 42.8 °F 34.3 °F 39.2 °F 87% 29.55 in 10.0 mi SE 19.6 mph - N/A   Overcast
10:56 AM - - - N/A% 29.51 in - ENE 13.8 mph - N/A   Unknown
11:16 AM 44.6 °F 39.7 °F 33.8 °F 66% 29.49 in 10.0 mi ESE 9.2 mph - N/A   Overcast
11:36 AM 46.4 °F 40.1 °F 37.4 °F 71% 29.47 in 10.0 mi SE 15.0 mph - N/A   Overcast
11:56 AM 46.4 °F 37.9 °F 37.4 °F 71% 29.48 in 10.0 mi ESE 25.3 mph - N/A   Overcast
12:16 PM 44.6 °F 35.9 °F 39.2 °F 81% 29.47 in 10.0 mi East 23.0 mph 27.6 mph N/A   Overcast
12:36 PM 44.6 °F 35.5 °F 39.2 °F 81% 29.47 in 10.0 mi East 25.3 mph 29.9 mph N/A   Overcast
12:56 PM 44.6 °F 36.6 °F 39.2 °F 81% 29.44 in 10.0 mi ENE 19.6 mph 27.6 mph N/A   Overcast
1:16 PM 46.4 °F 39.0 °F 39.2 °F 76% 29.43 in 10.0 mi East 19.6 mph - N/A   Mostly Cloudy
1:36 PM 44.6 °F 35.7 °F 39.2 °F 81% 29.43 in 10.0 mi ESE 24.2 mph 28.8 mph N/A   Mostly Cloudy
1:56 PM 44.6 °F 36.1 °F 39.2 °F 81% 29.43 in 10.0 mi East 21.9 mph 28.8 mph N/A   Overcast
2:16 PM 44.6 °F 36.1 °F 39.2 °F 81% 29.40 in 9.0 mi East 21.9 mph 31.1 mph N/A   Overcast
2:36 PM 44.6 °F 35.7 °F 39.2 °F 81% 29.38 in 10.0 mi ENE 24.2 mph 29.9 mph N/A   Overcast
2:56 PM 44.6 °F 35.1 °F 41.0 °F 87% 29.36 in 10.0 mi East 27.6 mph 33.4 mph N/A   Overcast
3:16 PM 44.6 °F 35.7 °F 41.0 °F 87% 29.35 in 9.0 mi East 24.2 mph 33.4 mph N/A   Overcast
3:36 PM 44.6 °F 35.1 °F 41.0 °F 87% 29.34 in 7.0 mi East 27.6 mph 34.5 mph N/A   Overcast
3:56 PM 44.6 °F 35.7 °F 41.0 °F 87% 29.30 in 7.0 mi East 24.2 mph 34.5 mph N/A   Overcast
4:16 PM 44.6 °F 35.1 °F 41.0 °F 87% 29.30 in 9.0 mi East 27.6 mph 38.0 mph N/A   Overcast
4:36 PM 44.6 °F 35.3 °F 41.0 °F 87% 29.29 in 4.0 mi East 26.5 mph 36.8 mph N/A   Overcast
4:56 PM 46.4 °F 39.8 °F 41.0 °F 81% 29.27 in 8.0 mi East 16.1 mph 26.5 mph N/A   Overcast
5:16 PM 46.4 °F 38.3 °F 41.0 °F 81% 29.25 in 5.0 mi ENE 23.0 mph 33.4 mph N/A   Overcast
5:36 PM 46.4 °F 37.5 °F 41.0 °F 81% 29.24 in 10.0 mi East 27.6 mph 38.0 mph N/A   Overcast
5:56 PM 46.4 °F 37.9 °F 41.0 °F 81% 29.23 in 5.0 mi East 25.3 mph 35.7 mph N/A   Overcast
6:16 PM 46.4 °F 37.9 °F 41.0 °F 81% 29.23 in 5.0 mi East 25.3 mph 31.1 mph N/A   Overcast
6:36 PM 46.4 °F 38.5 °F 41.0 °F 81% 29.21 in 10.0 mi East 21.9 mph 29.9 mph N/A   Overcast
6:56 PM 48.2 °F - 41.0 °F 76% 29.20 in 10.0 mi ENE 18.4 mph 29.9 mph N/A   Overcast
7:16 PM 48.2 °F - 41.0 °F 76% 29.19 in 10.0 mi East 17.3 mph 28.8 mph N/A   Overcast
7:36 PM 48.2 °F - 41.0 °F 76% 29.18 in 9.0 mi ENE 17.3 mph 27.6 mph N/A   Overcast
7:56 PM 48.2 °F - 41.0 °F 76% 29.17 in 10.0 mi NE 17.3 mph 24.2 mph N/A   Overcast
8:16 PM 48.2 °F - 41.0 °F 76% 29.16 in 10.0 mi NE 13.8 mph 23.0 mph N/A   Overcast
8:36 PM 48.2 °F - 39.2 °F 71% 29.15 in 10.0 mi ENE 15.0 mph 19.6 mph N/A   Mostly Cloudy
8:56 PM 50.0 °F - 39.2 °F 66% 29.14 in 10.0 mi ESE 11.5 mph - N/A   Overcast
9:16 PM 51.8 °F - 41.0 °F 67% 29.14 in 10.0 mi East 12.7 mph - N/A   Overcast
9:36 PM 50.0 °F - 39.2 °F 66% 29.13 in 10.0 mi Calm Calm - N/A   Overcast
9:56 PM 50.0 °F - 39.2 °F 66% 29.13 in 5.0 mi Calm Calm - N/A   Overcast
10:16 PM 48.2 °F - 41.0 °F 76% 29.12 in 10.0 mi West 9.2 mph - N/A   Overcast
10:36 PM 48.2 °F - 41.0 °F 76% 29.12 in 10.0 mi WSW 4.6 mph - N/A   Overcast
10:56 PM 48.2 °F - 42.8 °F 82% 29.12 in 10.0 mi Calm Calm - N/A   Overcast
11:16 PM 48.2 °F - 42.8 °F 82% 29.11 in 10.0 mi SW 4.6 mph - N/A   Overcast
11:36 PM 48.2 °F - 41.0 °F 76% 29.11 in 10.0 mi WSW 6.9 mph - N/A   Overcast
11:56 PM 48.2 °F - 41.0 °F 76% 29.10 in 10.0 mi WSW 10.4 mph - N/A   Overcast